Home   Weather   Nagoya   Past weeks

Flag for Japan Past Weather in Nagoya, Japan — Yesterday and Last 2 Weeks

Now
54 °F

Passing clouds.


Feels Like: 50 °F
Forecast: 44 / 68 °F
Wind: 10 mph from North

Location: Nagoya Airport

Current Time: Apr 28, 2017 at 7:25:49 am

Latest Report: Apr 28, 2017 at 7:00 am


Visibility: N/A

Pressure: 29.80 "Hg

Humidity: 63%

Dew Point: 41 °F

Location of NagoyaLocation

Past Weather in Nagoya — Graph

°F

Nagoya Temperature Yesterday

Maximum temperature yesterday: 64 °F (at 12:30 pm)
Minimum temperature yesterday: 55 °F (at 11:30 pm)
Average temperature yesterday: 59 °F

High & Low Weather Summary for the Past Weeks

 TemperatureHumidityPressure
High70 °F (Apr 25, 12:00 pm)94% (Apr 17, 5:00 am)30.33 "Hg (Apr 17, 5:00 am)
Low45 °F (Apr 14, 4:30 am)25% (Apr 13, 11:30 am)29.27 "Hg (Apr 18, 3:30 am)
Average59 °F66%29.90 "Hg
* Reported Apr 13 6:00 am — Apr 28 6:00 am, Nagoya, Weather by CustomWeather, © 2017

Note: Actual official high and low records may vary slightly from our data, if they occured in-between our weather recording intervals... More about our weather records

Advertising

Nagoya Weather History for the Previous 24 Hours

Scroll right to see more
 ConditionsComfort  
Time TempWeatherWind HumidityBarometerVisibility
6:00 am
Fri, Apr 28
50 °FPassing clouds.9 mph76%29.80 "HgN/A
5:30 am48 °FPassing clouds.9 mph82%29.77 "HgN/A
5:00 am52 °FClear.9 mph72%29.77 "Hg10 mi
4:00 am54 °FClear.9 mph63%29.77 "Hg10 mi
3:00 am54 °FClear.13 mph67%29.77 "Hg10 mi
2:30 am54 °FClear.13 mph63%29.77 "Hg10 mi
2:00 am55 °FClear.12 mph55%29.77 "Hg10 mi
1:30 am55 °FClear.14 mph59%29.77 "Hg10 mi
1:00 am55 °FClear.12 mph55%29.80 "Hg10 mi
12:30 am57 °FClear.13 mph48%29.80 "Hg10 mi
12:00 am57 °FClear.15 mph55%29.80 "Hg10 mi
11:30 pm
Thu, Apr 27
55 °FClear.16 mph55%29.80 "Hg10 mi
11:00 pm57 °FClear.21 mph48%29.80 "Hg10 mi
10:30 pm57 °FClear.17 mph44%29.80 "Hg10 mi
9:30 pm57 °FClear.17 mph44%29.80 "Hg10 mi
9:00 pm57 °FClear.22 mph44%29.77 "Hg10 mi
8:30 pm57 °FClear.24 mph44%29.77 "Hg10 mi
8:00 pm57 °FPassing clouds.23 mph41%29.74 "HgN/A
7:30 pm59 °FPassing clouds.25 mph42%29.74 "HgN/A
7:00 pm59 °FPassing clouds.26 mph42%29.74 "HgN/A
6:30 pm59 °FPartly sunny.25 mph42%29.71 "HgN/A
6:00 pm59 °FPartly sunny.25 mph45%29.71 "HgN/A
5:30 pm61 °FPartly sunny.28 mph42%29.71 "HgN/A
5:00 pm61 °FPartly sunny.28 mph42%29.68 "HgN/A
4:30 pm61 °FPartly sunny.26 mph48%29.68 "HgN/A
4:00 pm63 °FPartly sunny.25 mph42%29.68 "HgN/A
3:30 pm63 °FPartly sunny.23 mph42%29.68 "HgN/A
3:00 pm63 °FPartly sunny.24 mph45%29.68 "HgN/A
2:30 pm64 °FPartly sunny.22 mph43%29.68 "HgN/A
2:00 pm64 °FPartly sunny.18 mph40%29.68 "HgN/A
1:30 pm64 °FPartly sunny.16 mph46%29.68 "HgN/A
12:30 pm64 °FPartly sunny.7 mph40%29.68 "HgN/A
12:00 pm63 °FPartly sunny.13 mph45%29.68 "HgN/A
11:30 am63 °FPartly sunny.17 mph42%29.71 "HgN/A
10:30 am61 °FPartly sunny.24 mph48%29.71 "HgN/A
10:00 am59 °FPartly sunny.25 mph48%29.68 "HgN/A
9:30 am61 °FPartly sunny.21 mph42%29.68 "HgN/A
9:00 am59 °FPartly sunny.16 mph48%29.68 "HgN/A
8:30 am59 °FPartly sunny.18 mph51%29.68 "HgN/A
8:00 am59 °FPartly sunny.21 mph51%29.68 "HgN/A
7:30 am57 °FPartly sunny.23 mph55%29.68 "HgN/A
7:00 am57 °FPartly sunny.21 mph59%29.68 "HgN/A
Weather by CustomWeather, © 2017

See weather overviewHow to use our weather pages